TimeEDT,TemperatureF,Dew PointF,Humidity,Sea Level PressureIn,VisibilityMPH,Wind Direction,Wind SpeedMPH,Gust SpeedMPH,PrecipitationIn,Events,Conditions,WindDirDegrees,DateUTC
12:53 AM,80.1,72.0,76,29.84,10.0,NNE,3.5,-,N/A,,Clear,30,2012-10-17 04:53:00
1:53 AM,79.0,72.0,79,29.84,10.0,Calm,Calm,-,N/A,,Clear,0,2012-10-17 05:53:00
2:53 AM,79.0,73.0,82,29.83,10.0,Calm,Calm,-,N/A,,Clear,0,2012-10-17 06:53:00
3:53 AM,79.0,73.9,84,29.82,10.0,East,3.5,-,N/A,,Clear,80,2012-10-17 07:53:00
4:53 AM,79.0,73.0,82,29.83,10.0,Calm,Calm,-,N/A,,Clear,0,2012-10-17 08:53:00
5:53 AM,79.0,73.9,84,29.85,10.0,Calm,Calm,-,N/A,,Clear,0,2012-10-17 09:53:00
6:53 AM,78.1,73.9,87,29.86,10.0,NE,3.5,-,N/A,,Clear,40,2012-10-17 10:53:00
7:53 AM,79.0,73.9,84,29.86,10.0,Calm,Calm,-,N/A,,Clear,0,2012-10-17 11:53:00
8:53 AM,82.0,72.0,71,29.87,10.0,ESE,8.1,-,N/A,,Clear,110,2012-10-17 12:53:00
9:53 AM,82.9,73.0,72,29.88,10.0,ESE,8.1,-,N/A,,Partly Cloudy,110,2012-10-17 13:53:00
10:53 AM,84.0,73.9,72,29.88,10.0,ESE,9.2,-,N/A,,Mostly Cloudy,120,2012-10-17 14:53:00
11:53 AM,82.9,73.0,72,29.89,10.0,SSE,9.2,-,N/A,,Mostly Cloudy,150,2012-10-17 15:53:00
12:53 PM,81.0,71.1,72,29.88,10.0,ESE,6.9,-,N/A,,Overcast,120,2012-10-17 16:53:00
1:53 PM,78.1,73.9,87,29.87,10.0,SE,10.4,-,0.00,Rain,Light Rain,140,2012-10-17 17:53:00
2:53 PM,79.0,75.0,88,29.85,10.0,ENE,3.5,-,0.00,Rain,Light Rain,60,2012-10-17 18:53:00
3:09 PM,80.6,75.2,84,29.84,10.0,ENE,4.6,-,0.00,,Mostly Cloudy,70,2012-10-17 19:09:00
3:37 PM,82.4,75.2,79,29.83,10.0,Variable,5.8,-,0.00,,Mostly Cloudy,0,2012-10-17 19:37:00
3:53 PM,82.0,73.9,76,29.83,10.0,East,3.5,-,0.00,,Mostly Cloudy,90,2012-10-17 19:53:00
4:25 PM,80.6,73.4,79,29.81,10.0,East,8.1,-,N/A,,Overcast,100,2012-10-17 20:25:00
4:53 PM,80.1,73.9,81,29.82,10.0,NNE,4.6,-,N/A,,Mostly Cloudy,30,2012-10-17 20:53:00
5:53 PM,80.1,75.0,85,29.82,10.0,ENE,3.5,-,N/A,,Mostly Cloudy,60,2012-10-17 21:53:00
6:53 PM,80.1,75.0,85,29.82,10.0,ENE,4.6,-,N/A,,Mostly Cloudy,70,2012-10-17 22:53:00
7:53 PM,81.0,75.9,85,29.82,10.0,ESE,8.1,-,N/A,,Scattered Clouds,110,2012-10-17 23:53:00
8:53 PM,81.0,75.9,85,29.84,10.0,ENE,4.6,-,0.00,,Mostly Cloudy,70,2012-10-18 00:53:00
9:53 PM,80.1,75.9,87,29.86,10.0,ESE,4.6,-,N/A,,Partly Cloudy,110,2012-10-18 01:53:00
10:53 PM,81.0,75.0,82,29.86,10.0,ESE,8.1,-,N/A,,Mostly Cloudy,120,2012-10-18 02:53:00
11:53 PM,82.0,75.0,79,29.87,10.0,SE,5.8,-,N/A,,Partly Cloudy,130,2012-10-18 03:53:00